Theta_e
317 315 316 316 316 317 319 319 318 320 319 321 322 322 342 340 338 336 333 330 329 327 324 325 325 326 327 331 338 342 337 332 331 329 328 332 338 344 346 347 348 348 347 348
317 317 317 318 319 319 319 321 320 320 319 318 319 321 334 338 336 333 331 328 327 324 321 322 321 322 323 325 328 334 335 339 342 340 340 344 347 338 344 342 342 347 349 350
317 318 319 320 319 320 318 318 319 321 320 318 317 315 341 337 333 330 328 326 325 322 320 320 320 319 321 320 322 325 326 328 332 337 342 345 343 337 336 335 337 341 344 346
319 319 319 318 322 319 320 319 319 319 316 318 315 314 336 337 334 331 326 325 324 321 320 320 320 319 318 319 319 319 321 322 324 326 329 329 328 327 329 331 333 335 339 339
319 320 320 320 321 321 322 319 320 319 317 314 314 312 320 335 336 332 328 326 324 322 320 320 321 321 319 319 320 320 319 319 321 322 323 323 324 325 325 326 329 331 330 331
320 320 321 320 320 320 319 319 318 315 312 315 315 315 323 335 334 331 329 326 325 323 321 320 322 323 321 321 322 322 320 319 319 319 320 322 323 323 324 325 324 325 325 327
321 320 320 321 321 317 317 316 317 316 316 319 318 326 326 333 331 330 328 326 324 323 320 319 319 321 321 320 319 318 318 318 317 316 317 319 319 319 321 321 323 323 324 324
322 323 322 322 320 320 320 316 316 319 319 322 322 335 332 331 328 327 326 324 323 322 319 318 318 320 320 319 319 317 315 314 311 308 311 311 312 313 313 313 315 315 317 320
321 323 321 321 320 319 320 317 316 319 319 318 321 330 330 329 329 327 326 324 322 321 319 318 319 319 319 316 316 315 311 310 309 309 310 311 311 312 314 313 314 315 314 313
321 321 321 321 320 319 317 317 318 315 322 324 321 328 330 333 330 328 327 324 322 320 319 317 318 318 317 316 314 312 311 310 311 311 311 312 312 312 313 313 313 314 314 315
318 317 319 319 320 321 316 319 318 315 318 321 322 322 325 326 329 329 327 325 322 321 320 317 317 319 317 316 314 312 311 310 311 312 312 313 312 312 312 312 313 314 313 315
321 320 322 324 321 321 321 321 317 318 319 320 322 321 323 322 321 325 326 326 323 321 320 318 318 319 316 315 315 314 311 311 312 312 312 313 312 311 310 310 311 311 311 313
319 320 322 320 320 320 323 324 323 316 316 319 319 320 320 321 320 318 318 318 325 322 319 317 318 318 317 316 316 315 312 312 312 314 313 313 313 312 312 311 311 311 311 312
320 317 320 320 322 321 322 322 320 321 320 320 320 320 319 319 319 317 315 315 324 323 320 318 318 319 319 318 317 316 313 313 313 314 313 313 313 313 313 312 311 311 312 312
313 315 320 320 323 322 322 322 322 321 318 322 319 318 316 313 315 316 315 322 324 325 321 319 318 318 319 318 317 316 316 314 314 315 314 314 314 314 313 312 311 311 312 313
316 319 323 324 323 323 323 322 321 320 320 315 313 315 314 317 322 323 323 324 325 325 324 322 320 319 319 320 319 319 317 317 315 315 315 314 314 314 314 313 312 312 313 312
320 319 322 323 323 323 320 320 320 318 315 314 315 314 320 322 323 322 321 323 323 324 323 322 320 321 320 321 320 319 317 317 317 316 315 314 313 314 314 313 312 312 310 309
319 318 318 321 321 325 319 320 320 323 322 318 318 317 320 320 319 320 319 318 319 319 322 321 320 320 320 319 318 318 317 315 314 313 312 312 311 312 312 312 311 310 309 309
315 317 319 319 319 319 321 320 319 318 323 320 318 318 317 319 318 320 319 317 315 314 316 316 316 316 315 315 315 314 313 312 311 310 309 309 310 309 309 309 310 310 309 309
317 316 318 317 321 322 319 321 317 315 322 320 317 317 316 315 315 314 318 317 313 315 315 315 314 314 314 314 313 312 310 310 309 308 308 307 306 306 306 307 309 310 309 309
316 317 318 315 315 317 320 321 318 320 317 319 314 315 314 314 313 313 314 313 314 314 313 312 312 312 311 311 310 310 309 309 307 306 305 305 305 306 306 307 308 308 307 308
319 317 319 315 317 321 319 320 321 317 317 314 313 312 312 312 315 314 313 313 314 314 314 314 313 313 312 312 310 306 306 306 305 305 305 305 305 305 306 306 306 306 306 306
323 317 319 317 317 315 318 316 317 314 313 312 310 311 313 315 315 314 312 311 312 311 310 311 312 308 306 305 305 305 304 304 305 305 305 304 304 304 305 306 305 305 305 305
315 316 319 317 316 314 313 312 311 309 309 309 310 311 311 313 313 312 311 310 311 311 310 309 307 306 305 304 304 304 304 305 305 304 304 303 301 303 305 304 305 305 304 304
313 314 314 315 315 313 313 312 311 311 310 310 312 312 312 311 311 310 309 309 310 310 307 307 305 304 304 303 304 304 305 305 304 303 303 302 302 302 303 303 303 303 303 304
312 313 312 313 312 311 311 311 311 311 311 310 311 312 312 310 308 308 307 307 306 305 305 304 304 304 304 304 305 305 304 304 303 302 302 301 301 301 302 303 303 302 302 302
Wind_Speed
3 5 2 7 6 7 3 2 5 6 6 5 2 3 13 11 11 9 9 13 15 14 19 18 16 20 25 25 24 16 7 7 7 7 15 24 24 24 31 34 29 24 24 22
6 4 8 8 4 2 7 6 6 4 8 5 3 6 8 8 7 7 7 9 9 7 8 16 20 23 24 26 25 21 19 16 11 13 17 15 15 15 14 15 20 14 15 16
7 7 4 2 3 5 4 7 4 1 5 2 2 4 6 8 10 9 8 7 8 8 8 10 20 28 28 29 25 21 20 21 18 14 7 6 4 12 17 20 19 18 16 8
4 2 4 5 4 4 4 1 5 5 5 2 4 3 1 7 6 8 6 6 6 7 8 13 17 23 28 23 23 22 20 23 23 21 22 24 22 18 18 15 20 19 14 11
3 3 1 6 3 3 4 1 3 1 3 4 6 3 3 9 2 1 3 5 6 7 8 8 16 20 18 19 21 21 23 25 25 25 24 23 21 20 20 19 20 20 21 19
3 3 4 5 3 4 2 5 8 6 4 2 2 5 5 5 6 4 3 3 5 6 6 8 12 13 14 12 12 12 17 20 21 23 23 24 23 21 22 21 22 21 21 21
5 6 4 4 5 8 9 7 4 5 4 6 5 4 2 7 12 10 9 8 7 6 7 6 8 8 10 12 13 11 14 16 16 18 20 20 21 22 21 21 20 22 22 21
4 4 5 4 4 4 3 6 5 4 3 5 6 1 3 10 13 11 10 8 7 6 6 6 8 8 7 6 6 7 10 12 13 16 17 17 17 18 19 18 19 19 18 17
3 2 4 5 2 4 3 2 5 4 2 2 1 3 4 6 8 9 9 8 8 7 7 7 8 8 9 8 6 6 9 11 13 16 17 19 20 20 20 20 19 20 20 19
1 2 2 4 3 3 5 4 3 3 2 3 4 4 4 10 11 9 10 9 9 8 8 7 12 14 11 9 6 7 6 8 10 11 13 15 16 17 18 18 20 20 20 21
3 4 5 3 2 1 4 2 5 4 4 4 2 5 5 8 12 14 12 13 13 12 10 9 16 16 14 12 8 6 5 6 6 7 8 11 13 14 14 15 16 16 17 17
1 4 1 6 6 3 2 3 4 5 5 1 4 5 4 10 9 13 15 14 14 9 12 10 17 19 18 14 10 8 6 5 1 2 5 6 7 11 12 13 16 16 16 15
4 2 3 8 6 7 4 4 2 4 3 4 4 5 3 5 7 8 9 12 16 14 9 7 13 17 17 14 12 9 10 7 4 4 6 8 8 9 11 12 13 13 13 16
8 3 6 6 4 3 4 7 4 4 3 4 6 7 10 6 7 8 4 5 5 6 8 8 8 14 17 16 13 10 10 10 10 8 7 11 12 12 11 11 11 13 13 13
5 4 3 4 3 2 2 6 9 4 6 5 6 5 8 8 5 4 9 8 8 4 8 11 8 13 19 16 11 13 14 15 16 15 14 16 16 17 15 12 12 13 13 11
3 2 2 2 3 5 6 9 10 9 11 5 5 1 4 6 10 12 7 7 7 5 5 6 7 14 19 21 16 14 23 19 20 22 20 20 20 21 21 14 14 13 8 11
4 5 4 4 3 4 6 5 5 3 6 4 5 2 2 7 9 6 6 5 5 4 4 5 7 13 16 16 13 17 15 16 19 17 14 12 11 10 9 11 10 7 12 16
6 6 3 4 2 3 6 6 11 13 7 8 8 6 5 5 4 5 4 7 6 5 5 3 4 4 8 14 17 17 5 6 9 12 11 12 13 12 11 8 10 13 16 18
7 5 2 4 4 5 7 3 3 4 3 3 6 5 4 4 4 5 3 5 6 6 10 13 12 15 13 13 8 6 10 11 11 11 12 12 12 14 15 15 13 13 17 20
6 5 5 3 3 5 4 4 3 4 1 2 5 3 3 4 3 3 5 4 7 12 13 11 11 12 12 8 6 6 5 9 8 6 6 9 13 15 15 16 17 16 17 16
3 3 5 3 3 6 3 6 1 4 6 1 5 4 4 4 3 1 6 8 12 16 16 13 13 11 9 8 10 5 6 8 6 6 9 13 15 17 19 18 16 15 15 15
6 6 3 3 2 6 5 1 4 6 3 7 4 4 6 5 6 7 6 6 9 10 8 4 1 2 5 8 4 6 11 9 9 10 11 14 17 17 16 15 16 14 11 11
1 6 5 7 5 5 2 2 3 4 6 3 6 5 7 7 6 6 6 6 7 5 1 2 3 14 12 12 10 9 9 10 8 10 12 13 14 16 15 12 12 12 9 11
5 2 3 4 2 5 7 4 5 5 6 6 6 6 6 7 6 5 4 4 3 0 3 5 9 11 7 6 6 5 3 4 9 10 11 12 15 15 13 13 11 9 14 15
4 1 4 1 2 5 4 5 5 4 5 9 6 7 7 8 6 5 4 2 1 1 7 8 7 5 5 6 7 6 4 5 6 8 10 13 13 13 12 10 11 8 11 13
3 4 3 5 6 5 4 4 3 5 6 7 8 5 8 10 7 8 4 6 13 11 9 9 7 5 5 6 5 5 5 4 5 8 11 11 13 12 10 10 8 7 8 9
Wind_Direction
333 58 240 252 210 201 240 6 20 15 0 98 113 41 116 102 85 92 112 129 135 128 124 118 92 71 67 64 67 62 33 354 304 279 278 287 258 265 273 302 293 281 277 263
20 218 237 209 184 53 33 56 356 341 4 74 32 53 104 80 79 88 78 61 68 81 81 86 87 84 71 66 59 54 45 35 5 322 301 298 305 300 334 342 342 330 312 289
169 227 194 123 42 78 31 80 67 96 309 50 108 0 102 68 85 83 70 82 68 72 69 61 59 60 59 57 60 57 54 53 48 42 13 335 7 3 11 19 18 4 345 354
161 267 132 62 69 89 76 350 53 23 61 261 77 267 141 110 60 66 43 54 68 54 48 51 56 59 58 60 59 56 57 60 57 57 59 63 64 57 47 42 43 35 25 3
216 128 108 87 153 96 183 42 24 323 20 44 352 70 293 115 92 106 98 76 66 72 69 60 59 68 66 66 63 59 55 56 58 62 64 65 65 59 56 51 50 52 47 48
239 260 162 143 93 51 317 27 17 35 77 3 221 180 211 195 177 151 133 153 144 134 125 104 84 78 73 74 64 58 61 59 53 52 58 65 65 60 54 45 42 40 41 41
1 351 354 106 76 17 64 58 355 354 7 223 296 71 246 123 139 159 167 183 191 162 137 132 123 115 101 86 87 75 59 55 49 52 54 54 56 59 59 51 45 39 35 32
124 3 357 17 111 153 72 134 150 224 229 274 335 146 201 154 162 164 167 165 169 168 166 160 155 134 123 119 118 89 70 64 57 56 56 54 53 54 54 49 44 40 34 25
134 163 17 75 101 101 313 9 177 127 322 74 204 69 45 159 165 164 166 172 184 191 184 183 166 173 169 157 135 103 94 85 71 65 61 55 52 51 49 46 42 36 33 28
174 119 342 19 37 336 149 173 41 7 201 239 286 208 218 189 185 187 187 198 205 204 194 188 184 191 188 173 146 131 106 92 85 72 59 52 48 48 47 45 42 35 29 27
79 88 294 44 65 353 6 39 65 115 138 167 311 280 235 180 189 194 203 205 204 203 197 188 190 196 188 181 173 171 145 134 100 68 52 47 38 36 38 40 38 35 32 31
14 130 237 231 271 184 143 130 114 117 276 130 152 269 234 187 185 193 211 210 212 201 200 188 185 191 184 183 187 188 186 171 20 22 19 16 27 35 36 37 35 35 31 28
177 43 33 344 354 5 45 12 108 123 83 200 141 263 248 245 211 220 219 200 206 201 180 173 182 188 188 187 196 215 204 207 240 276 317 334 337 352 7 11 21 16 20 22
94 111 156 194 181 219 321 325 311 147 126 224 213 249 285 257 238 251 330 58 118 186 181 181 184 186 192 189 203 221 225 237 248 264 286 304 316 320 321 334 349 4 356 359
101 142 188 236 279 6 287 297 301 292 227 177 247 234 271 283 318 13 93 84 82 51 180 195 179 173 182 189 198 225 251 252 258 267 270 287 299 300 304 313 326 331 343 11
13 202 147 292 303 337 306 284 269 274 276 166 141 214 24 58 69 58 59 78 82 83 78 102 135 153 169 186 207 244 241 244 257 260 266 287 295 302 302 295 310 330 11 7
131 133 113 250 253 335 319 256 238 207 18 140 74 304 95 68 79 86 81 87 103 110 123 141 158 170 183 208 246 242 250 275 281 252 275 332 356 354 350 323 321 347 347 347
143 134 132 203 50 236 239 302 96 94 49 65 91 66 107 125 124 110 120 109 78 83 101 115 157 211 243 261 265 261 245 67 58 54 38 31 25 17 15 359 337 338 339 350
165 133 137 151 188 290 319 334 188 144 47 59 94 94 108 166 81 37 46 99 114 101 106 111 117 122 107 96 95 103 82 77 59 39 33 32 34 22 6 346 334 338 340 344
99 102 130 133 156 225 241 318 150 87 165 225 125 132 115 114 69 253 194 121 95 96 100 97 91 88 76 59 93 98 71 77 74 69 34 7 3 357 350 345 337 333 332 340
79 56 152 145 191 283 249 295 347 131 221 104 81 67 52 73 206 162 108 86 101 93 84 78 60 48 50 44 357 15 47 47 63 33 14 2 355 355 355 340 326 329 331 330
157 147 196 107 150 274 213 86 174 200 178 141 135 124 101 91 67 113 111 106 109 106 104 109 119 288 318 307 305 86 60 35 13 4 3 355 348 352 351 340 333 330 338 341
131 170 184 168 215 242 273 175 127 119 118 100 103 127 112 112 116 133 147 150 140 130 138 123 64 90 93 73 61 34 14 354 359 8 11 10 5 2 3 7 356 353 8 3
349 111 118 92 30 74 93 77 104 135 136 126 140 133 128 134 147 145 143 147 150 6 12 72 93 90 82 43 26 9 1 32 14 15 13 359 356 1 11 10 10 10 1 347
214 96 159 288 90 90 51 111 135 130 130 114 119 126 127 126 143 144 154 197 189 120 100 107 97 62 29 25 23 15 30 4 20 11 355 350 353 355 355 2 352 1 8 2
176 188 157 216 206 157 197 186 160 110 118 134 127 132 145 144 154 156 139 88 107 92 74 65 41 25 4 356 49 53 21 359 359 355 350 353 345 344 350 348 9 16 353 351